Location: Kent
(51.2500°N, 0.7500°E)
Time: 12:49:13
(UTC+00:00)

Daily predictions for brighter satellites

Satellite Brightness Start Highest point End
(mag) Time Altitude Azimuth Time Altitude Azimuth Time Altitude Azimuth
Centaur D AC-29 4.3 20:39:03 10° S 20:43:37 15° SE 20:52:50 10° ESE
ARGOS Delta rocket 3.9 20:40:16 10° SSE 20:45:07 75° ENE 20:49:43 10° N
Cosmos 1151 Rocket 3.8 20:44:32 10° SSE 20:48:29 35° E 20:52:25 10° NNE
Cosmos 1975 3.9 20:46:31 10° N 20:50:03 30° ENE 20:53:33 10° SE
Cosmos 1992 Rocket 4.3 20:48:01 10° NNW 20:53:13 59° ENE 20:58:21 10° SE
Cosmos 1302 Rocket 4.2 20:52:29 10° NNW 20:57:41 73° WSW 21:02:52 10° SSE
MOS 1 Rocket 3.8 20:54:38 10° SSE 20:59:49 63° ENE 21:05:11 10° N
USA 281 3.7 20:54:43 10° SE 21:01:05 54° NE 21:07:28 10° NNW
Cosmos 220 Rocket 4.5 20:58:04 10° S 21:02:07 41° ESE 21:06:10 10° NE
NOSS 3-3 (A) 4.4 20:58:20 10° S 21:03:14 35° ESE 21:08:50 10° NE
Cosmos 1536 3.8 21:01:09 10° NNW 21:04:54 45° W 21:08:39 10° SSW
Meteor 1-19 Rocket 4.3 21:00:51 10° S 21:06:40 77° E 21:12:18 10° NNE
NOSS 2-1 (C) 4.0 21:03:34 10° NW 21:07:16 52° SW 21:12:16 10° SSE
Meteor 2-17 Rocket 4.5 21:02:48 10° S 21:08:47 68° E 21:14:48 10° NNE
Cosmos 1340 2.5 21:05:26 10° NNW 21:08:50 72° W 21:12:12 10° S
Cosmos 1943 4.3 21:04:09 10° SW 21:09:38 49° NW 21:15:08 10° NNE
Landsat 4 3.6 21:09:45 10° S 21:13:14 76° WSW 21:16:44 10° NNW
Okean-O 4.5 21:12:36 10° SSW 21:16:21 27° W 21:20:07 10° NW
Cosmos 1500 Rocket 4.2 21:12:12 10° NNW 21:16:24 52° W 21:20:34 10° S
USA 245 3.2 21:14:32 10° S 21:16:47 42° W 21:19:23 10° NNW
Nadezhda 4 Rocket 4.0 21:11:28 10° S 21:17:40 78° E 21:23:58 10° NNE
NOSS 3-4 (A) 4.3 21:11:20 10° NW 21:17:45 54° NE 21:25:11 10° ESE
NOSS 3-4 (C) 4.3 21:11:26 10° NW 21:17:50 54° NE 21:25:16 10° ESE
Spot 2 Rocket 3.6 21:12:53 10° SSE 21:17:56 80° WSW 21:23:01 10° NNW
MetOp-A 4.3 21:14:04 11° SE 21:18:29 55° ENE 21:23:29 10° N
Cosmos 1626 3.0 21:17:57 14° SE 21:20:06 26° E 21:22:52 10° NNE
Cosmos 1726 4.5 21:20:54 10° NW 21:22:48 15° W 21:24:42 10° SW
SPOT 5 4.1 21:19:08 10° SSW 21:23:09 33° W 21:27:07 10° NNW
Sich 1 3.7 21:19:43 10° NNW 21:24:00 52° W 21:28:14 10° S
Cosmos 1697 Rocket 3.3 21:20:33 10° NNW 21:26:02 49° NE 21:31:08 12° SE
BREEZE-M DEB (TANK) 3.7 21:16:29 10° SW 21:27:08 42° SSE 21:30:28 10° E
Cosmos 1805 Rocket 4.4 21:23:48 10° NNW 21:28:03 48° W 21:32:17 10° SSW
Cosmos 1470 Rocket 4.5 21:24:11 10° N 21:28:20 36° ENE 21:31:41 14° SE
Cosmos 1733 4.2 21:26:30 10° NNW 21:29:48 39° W 21:33:04 10° SSW
Cosmos 1633 Rocket 3.3 21:26:58 10° N 21:31:21 58° ENE 21:34:53 15° SSE
IRIDIUM 104 4.5 21:27:02 10° N 21:32:14 64° E 21:36:47 13° SSE
Cosmos 1980 Rocket 3.4 21:30:50 10° NNW 21:36:02 34° NE 21:41:12 10° ESE
NOSS 3-3 (C) 3.9 21:31:26 10° SSW 21:36:42 54° ESE 21:42:56 10° NE
Cosmos 1666 Rocket 3.5 21:32:59 10° N 21:37:19 78° ENE 21:40:50 15° SSE
Lacrosse 5 rocket 2.3 21:34:49 10° WNW 21:38:57 47° NNE 21:42:56 10° E
SL-8 R/B 3.8 21:34:28 10° W 21:39:08 56° SSW 21:43:38 11° ESE
Ariane Rocket 3.6 21:36:21 10° S 21:41:18 54° W 21:46:19 10° NNW
IRIDIUM 114 4.3 21:36:09 10° N 21:41:24 75° E 21:45:55 14° S
Cosmos 44 Rocket 3.4 21:36:53 10° NW 21:41:53 78° NE 21:45:49 15° SE
Cosmos 1674 4.0 21:44:53 16° SE 21:46:26 22° E 21:49:11 10° NE
USA 234 4.0 21:40:21 10° ENE 21:46:44 56° N 21:53:05 10° W
IRIDIUM 103 4.3 21:45:18 10° N 21:50:34 88° E 21:55:03 14° S
Meteor 2-4 Rocket 3.8 21:47:02 10° S 21:52:58 84° E 21:58:56 10° NNE
ERS-1 Rocket 4.4 21:49:18 10° SSW 21:53:46 32° W 21:58:17 10° NNW
Cosmos 1340 Rocket 4.2 21:50:33 10° SW 21:54:16 37° WNW 21:58:00 10° N
Lacrosse 4 Rocket 2.5 21:50:52 10° NW 21:54:35 33° WSW 21:57:32 15° S
Cosmos 2026 Rocket 4.0 21:49:46 10° S 21:56:03 81° E 22:02:16 10° NNE
SPOT 3 Rocket 4.4 21:51:18 10° S 21:56:12 45° W 22:01:09 10° NNW
Spot 1 4.0 21:52:34 10° NNE 21:56:44 89° W 22:01:01 10° SSW
Cosmos 614 Rocket 4.4 21:52:36 10° SW 21:57:47 65° WNW 22:03:00 10° NNE
Cosmos 1818 3.6 21:54:52 10° SW 22:00:20 88° SE 22:05:52 10° NE
USA 59 Rocket 1.9 21:59:54 10° WNW 22:03:13 23° WSW 22:06:48 12° S
H-2A R/B 3.6 22:01:54 16° ESE 22:04:45 34° ENE 22:08:40 10° N
Cosmos 1607 4.3 21:59:03 10° S 22:05:09 47° ESE 22:11:20 10° NE
Cosmos 1766 3.1 22:03:29 10° N 22:07:16 88° ENE 22:09:34 22° S
Terra 3.5 22:03:55 10° SSW 22:07:53 26° W 22:11:52 10° NW
Cosmos 1833 Rocket 2.7 22:07:46 12° SSW 22:12:57 60° ESE 22:18:29 10° NE
ALOS 2 4.1 22:12:16 13° ESE 22:15:19 26° ENE 22:18:59 10° N
SL-16 R/B 4.2 22:11:09 10° NNW 22:15:36 23° NE 22:20:01 10° E
Cosmos 1269 Rocket 4.1 22:14:00 10° SSW 22:19:16 79° WNW 22:24:35 10° NNE
Cosmos 1470 2.8 22:18:05 10° N 22:21:46 61° ENE 22:23:37 27° SSE
Landsat 5 4.1 22:19:48 10° N 22:23:29 48° WNW 22:27:11 10° SW
S3M 4.4 22:18:27 10° N 22:24:45 55° ENE 22:29:12 20° SSE
Cosmos 1975 4.5 22:22:29 10° NNW 22:25:51 27° W 22:28:58 11° SW
Cosmos 2082 Rocket 3.4 22:23:57 19° SE 22:26:26 26° ESE 22:31:05 10° NE
Cosmos 2251 Rocket 4.2 22:24:49 22° SSE 22:27:35 38° ESE 22:32:27 10° NE
Cosmos 1553 Rocket 4.0 22:24:46 10° NNW 22:30:52 82° W 22:35:15 20° S
GEOS 3 Rocket 3.6 22:32:27 10° NE 22:37:37 63° SE 22:42:27 11° SSW
Cosmos 1908 3.2 22:34:08 10° N 22:37:42 62° ENE 22:39:14 31° SSE
Cosmos 724 4.3 22:34:34 12° SSW 22:39:56 63° ESE 22:45:42 10° NE
ARIANE 5 R/B 2.7 22:40:25 25° S 22:42:50 70° WSW 22:47:10 10° NNW
Cosmos 2315 Rocket 4.4 22:39:08 10° N 22:45:20 54° ENE 22:49:34 21° SE
USA 281 4.0 22:41:02 17° S 22:45:45 41° WSW 22:51:56 10° NW
H-2A R/B 4.1 22:45:27 10° NE 22:48:09 16° E 22:49:42 13° ESE
CZ-2C R/B 3.7 22:46:22 10° NNE 22:50:52 81° WNW 22:53:46 21° SSW
Cosmos 1023 Rocket 4.5 22:48:17 16° SSW 22:52:31 87° WNW 22:57:46 10° NNE
Cosmos 2285 Rocket 4.0 22:48:47 19° SSW 22:53:31 74° ESE 22:59:53 10° NNE
Cosmos 1626 4.0 22:51:06 10° WSW 22:53:38 21° WNW 22:56:10 10° NNW
NOSS 3-3 (A) 4.4 22:48:07 10° WSW 22:53:44 61° NW 23:00:23 10° NE
Cosmos 1346 Rocket 4.4 22:53:34 10° N 22:56:49 25° ENE 22:58:57 16° ESE
Cosmos 1515 Rocket 3.9 22:54:04 20° SSW 22:56:58 60° WNW 23:01:16 10° N
Meteor 1-22 Rocket 4.2 22:52:31 10° N 22:57:53 72° ENE 23:01:09 25° SSE
Cosmos 1140 Rocket 3.5 22:54:17 16° SSW 22:58:27 83° WNW 23:03:42 10° NNE
Cosmos 1733 Rocket 4.0 22:56:49 10° N 23:00:53 37° ENE 23:03:12 21° SE
Spot 4 3.8 22:58:19 27° SSE 23:00:55 88° E 23:05:44 10° NNW
BREEZE-M DEB (TANK) 4.3 22:56:24 10° SW 23:01:13 60° SE 23:21:32 10° ENE
Cosmos 1707 2.6 23:00:27 30° SSW 23:02:08 74° W 23:05:48 10° N
Spot 2 4.4 23:01:25 27° SSE 23:04:08 79° ENE 23:09:09 10° NNW
Cosmos 1400 Rocket 3.7 23:02:59 27° SE 23:04:19 35° E 23:07:57 10° NNE
PSLV R/B 4.0 23:00:28 10° N 23:04:31 73° WNW 23:06:48 25° SSW
Cosmos 1300 3.4 23:01:53 10° N 23:05:16 38° ENE 23:06:40 26° ESE
Cosmos 2266 Rocket 4.0 23:02:10 23° S 23:06:13 80° E 23:12:34 10° NNE
Cosmos 1869 Rocket 3.6 23:03:30 10° NNW 23:07:54 77° W 23:10:01 30° S
NOSS 3-4 (A) 4.1 23:02:11 10° NW 23:08:50 54° SW 23:13:38 23° S
NOSS 3-4 (C) 4.1 23:02:17 10° NW 23:08:56 55° SW 23:13:46 23° SSE
Cosmos 1697 Rocket 3.7 23:04:48 10° NW 23:09:51 35° WSW 23:12:51 21° SSW
Cosmos 2322 Rocket 3.8 23:05:43 10° NNW 23:10:44 31° NE 23:15:44 10° ESE
Cosmos 1441 Rocket 3.0 23:07:17 10° NNW 23:10:51 72° W 23:12:05 38° S
Cosmos 841 Rocket 4.5 23:07:01 10° NNW 23:12:00 42° ENE 23:16:05 15° ESE
Cosmos 883 Rocket 4.5 23:06:57 10° N 23:13:15 87° E 23:17:09 25° S
Meteor 1-15 Rocket 4.2 23:08:01 10° NNW 23:13:41 88° WSW 23:16:53 27° S
OPS 6432 4.2 23:10:58 10° NW 23:14:03 59° SW 23:14:38 48° S
In-Cosmos 22 4.2 23:12:55 25° S 23:16:26 82° E 23:22:08 10° NNE
Lacrosse 5 rocket 1.3 23:13:18 10° WNW 23:17:27 61° SW 23:19:04 33° SSE
Cosmos 1980 Rocket 2.5 23:14:45 10° NW 23:20:21 57° WSW 23:23:22 27° S
Cosmos 1674 4.1 23:18:27 16° SW 23:20:35 29° WNW 23:23:43 10° N
Cosmos 2228 Rocket 3.5 23:19:15 29° SSE 23:21:10 50° E 23:25:34 10° NNE
Cosmos 1842 4.4 23:19:04 18° SW 23:21:16 35° WNW 23:24:41 10° N
Cosmos 2333 Rocket 3.9 23:21:13 10° NNW 23:26:15 30° NE 23:31:16 10° ESE
Cosmos 540 Rocket 3.4 23:22:34 10° NNW 23:27:46 80° WSW 23:30:29 29° SSE
Cosmos 1356 Rocket 4.2 23:27:09 28° SE 23:28:36 38° E 23:32:29 10° NNE
USA 234 3.8 23:22:52 10° E 23:29:19 61° NNE 23:35:45 10° WNW
Cosmos 1953 4.0 23:26:41 10° NNE 23:29:58 25° ENE 23:32:08 16° ESE
Cosmos 1763 Rocket 3.7 23:24:58 10° NNW 23:30:11 58° WSW 23:32:48 28° S
Cosmos 1655 Rocket 4.0 23:26:16 25° S 23:30:15 84° E 23:36:42 10° N
BREEZE-M DEB (TANK) 3.4 23:30:25 10° W 23:37:30 10° SE 23:31:43 27° WSW
Cosmos 468 Rocket 4.0 23:27:42 10° NNW 23:33:00 78° WSW 23:35:47 28° SSE
GP-B 3.1 23:31:56 10° N 23:36:21 73° E 23:38:18 33° SSE
SL-14 R/B 3.2 23:36:11 38° SSE 23:37:29 66° E 23:41:17 10° NNE
H-2A R/B 3.7 23:37:53 22° SW 23:39:42 31° W 23:43:33 10° NNW
Cosmos 407 Rocket 4.0 23:36:24 16° SW 23:40:34 58° WNW 23:45:44 10° NNE
Cosmos 1455 3.7 23:38:36 10° NNE 23:41:32 24° ENE 23:43:13 17° ESE
CZ-3 Stage 3 4.5 23:28:40 10° WSW 23:42:06 22° SSW 23:43:39 21° S
Cosmos 1862 Rocket 3.7 23:42:08 33° SSE 23:43:54 60° E 23:48:12 10° NNE
Aureole 3 3.3 23:44:34 39° SE 23:45:07 44° E 23:48:17 10° NNE
RESURS DK-1 4.2 23:43:13 10° NNW 23:46:46 28° NE 23:50:18 10° ESE
SJ 16-02 3.7 23:45:57 10° ESE 23:47:15 11° E 23:48:33 10° ENE
Cosmos 676 Rocket 4.1 23:44:45 29° S 23:47:27 64° ESE 23:52:43 10° NNE
Cosmos 2369 4.2 23:42:34 10° NW 23:48:01 46° WSW 23:50:46 27° SSW
Cosmos 1954 Rocket 4.0 23:45:26 28° SSW 23:48:19 77° ESE 23:53:38 10° NNE
ALOS 2 3.3 23:49:40 28° SSW 23:51:28 43° W 23:55:41 10° NNW
Cosmos 1190 Rocket 4.1 23:51:06 23° SSW 23:54:27 76° WNW 23:59:48 10° NNE
Cosmos 1758 3.6 23:52:12 10° NNW 23:55:56 51° W 23:57:14 34° SSW
